This demonstration page uses our WeatherBlox Daily Observations layout. Learn more.

Left ArrowRight Arrow

41.12389, -100.76542

Hourly Observations for May 29, 2022

Temp ( °F °C ) Dew Point ( °F °C ) Humidity (%) Winds ( mph kmh ) Pressure ( in mb ) Visibility ( mi km ) Precip ( " mm )
12:53 am 00:53 Clear 68 20 52 11.1 57 57 NNE 10 17 29.34 993 10 16 0.00 0.00
1:53 am 01:53 Clear 66 18.9 56 13.3 70 70 ESE 3 6 29.31 993 10 16 0.00 0.00
2:53 am 02:53 Clear 64 17.8 57 13.9 78 78 Calm 29.31 993 10 16 0.00 0.00
3:53 am 03:53 Clear 62 16.7 57 13.9 84 84 Calm 29.30 992 10 16 0.00 0.00
4:53 am 04:53 Clear 64 17.8 57 13.9 78 78 N 3 6 29.29 992 10 16 0.00 0.00
5:53 am 05:53 Clear 61 16.1 56 13.3 84 84 WNW 9 15 29.32 993 10 16 0.00 0.00
6:53 am 06:53 Sunny 61 16.1 56 13.3 84 84 NW 5 7 29.32 993 10 16 0.00 0.00
7:53 am 07:53 Sunny 63 17.2 55 12.8 76 76 NW 7 11 29.34 994 10 16 0.00 0.00
8:53 am 08:53 Sunny 65 18.3 53 11.7 66 66 WNW 6 9 29.36 994 10 16 0.00 0.00
9:53 am 09:53 Sunny 69 20.6 49 9.4 49 49 N 10 17 29.36 994 10 16 0.00 0.00
10:53 am 10:53 Sunny 74 23.3 51 10.6 45 45 NNW 12 19 29.35 994 10 16 0.00 0.00
11:53 am 11:53 Sunny 77 25 53 11.7 43 43 N 13 20 29.34 994 10 16 0.00 0.00
12:53 pm 12:53 Sunny 79 26.1 52 11.1 39 39 N 15 24 29.33 993 10 16 0.00 0.00
1:53 pm 13:53 Sunny 80 26.7 52 11.1 38 38 NE 14 22 29.33 993 10 16 0.00 0.00
2:53 pm 14:53 Sunny 83 28.3 51 10.6 33 33 NE 10 17 29.31 993 10 16 0.00 0.00
3:53 pm 15:53 Sunny 85 29.4 52 11.1 32 32 ENE 14 22 29.31 992 10 16 0.00 0.00
4:53 pm 16:53 Sunny 86 30 50 10 29 29 ENE 9 15 29.30 992 10 16 0.00 0.00
5:53 pm 17:53 Sunny 84 28.9 52 11.1 33 33 ENE 9 15 29.30 992 10 16 0.00 0.00
6:53 pm 18:53 Sunny 76 24.4 56 13.3 50 50 E 7 11 29.31 993 10 16 0.00 0.00
7:53 pm 19:53 Sunny 72 22.2 57 13.9 59 59 E 9 15 29.30 992 10 16 0.00 0.00
8:53 pm 20:53 Mostly Sunny 68 20 53 11.7 59 59 W 25 41 29.36 994 10 16 0.00 0.00
9:12 pm 21:12 Mostly Cloudy with Nearby Thunderstorms 63 17.2 48 8.9 58 58 NW 23 37 29.35 994 10 16 0.00 0.00
9:27 pm 21:27 Mostly Cloudy 63 17.2 49 9.4 60 60 N 17 28 29.33 993 10 16 0.00 0.00
9:36 pm 21:36 Partly Cloudy 62 16.7 50 10 65 65 WNW 14 22 29.37 994 10 16 0.00 0.00
9:48 pm 21:48 Mostly Clear 61 16 52 11 72 72 NW 12 19 29.39 995 10 16 0.00 0.00
9:53 pm 21:53 Clear 60 15.6 51 10.6 72 72 NNW 14 22 29.39 995 10 16 0.00 0.00
10:53 pm 22:53 Partly Cloudy 60 15.6 52 11.1 75 75 WNW 14 22 29.41 996 10 16 0.00 0.00
11:53 pm 23:53 Mostly Cloudy 62 16.7 51 10.6 67 67 N 18 30 29.35 994 10 16 0.00 0.00

Powered by AerisWeather